Time,TemperatureF,DewpointF,PressureIn,WindDirection,WindDirectionDegrees,WindSpeedMPH,WindSpeedGustMPH,Humidity,HourlyPrecipIn,Conditions,Clouds,dailyrainin,SolarRadiationWatts/m^2,SoftwareType,DateUTC
2013-01-12 00:00:00,52.0,46.0,-100.00,SSW,202,11.0,-999.0,80,-99.99,,,-99.99,0.000000,,2013-01-12 05:00:00,
2013-01-12 00:42:00,52.0,46.0,-100.00,SSW,202,11.0,-999.0,80,-99.99,,,-99.99,0.000000,,2013-01-12 05:42:00,
2013-01-12 00:52:00,52.0,46.0,-100.00,SSW,202,11.0,-999.0,80,-99.99,,,-99.99,0.000000,,2013-01-12 05:52:00,
2013-01-12 03:00:00,52.0,45.0,-100.00,SSW,202,10.0,-999.0,76,-99.99,,,-99.99,0.000000,,2013-01-12 08:00:00,
2013-01-12 03:42:00,52.0,45.0,-100.00,SSW,202,10.0,-999.0,76,-99.99,,,-99.99,0.000000,,2013-01-12 08:42:00,
2013-01-12 03:53:00,52.0,45.0,-100.00,SSW,202,10.0,-999.0,76,-99.99,,,-99.99,0.000000,,2013-01-12 08:53:00,
2013-01-12 06:00:00,52.0,43.0,-100.00,SSW,202,9.0,-999.0,73,-99.99,,,-99.99,0.000000,,2013-01-12 11:00:00,
2013-01-12 06:43:00,52.0,43.0,-100.00,SSW,202,9.0,-999.0,73,-99.99,,,-99.99,0.000000,,2013-01-12 11:43:00,
2013-01-12 06:53:00,52.0,43.0,-100.00,SSW,202,9.0,-999.0,73,-99.99,,,-99.99,0.000000,,2013-01-12 11:53:00,
2013-01-12 12:00:00,54.0,46.0,-100.00,SW,225,7.0,-999.0,72,-99.99,,,-99.99,201.839996,,2013-01-12 17:00:00,
2013-01-12 12:33:00,54.0,46.0,-100.00,SW,225,7.0,-999.0,72,-99.99,,,-99.99,201.839996,,2013-01-12 17:33:00,
2013-01-12 12:43:00,54.0,46.0,-100.00,SW,225,7.0,-999.0,72,-99.99,,,-99.99,201.839996,,2013-01-12 17:43:00,
2013-01-12 12:53:00,54.0,46.0,-100.00,SW,225,7.0,-999.0,72,-99.99,,,-99.99,201.839996,,2013-01-12 17:53:00,
2013-01-12 15:00:00,52.0,43.0,-100.00,West,270,5.0,-999.0,71,-99.99,,,-99.99,167.039993,,2013-01-12 20:00:00,
2013-01-12 15:43:00,52.0,43.0,-100.00,West,270,5.0,-999.0,71,-99.99,,,-99.99,167.039993,,2013-01-12 20:43:00,
2013-01-12 15:53:00,52.0,43.0,-100.00,West,270,5.0,-999.0,71,-99.99,,,-99.99,167.039993,,2013-01-12 20:53:00,
2013-01-12 18:00:00,45.0,34.0,-100.00,NW,315,2.0,-999.0,65,-99.99,,,-99.99,3.480000,,2013-01-12 23:00:00,
2013-01-12 18:33:00,45.0,34.0,-100.00,NW,315,2.0,-999.0,65,-99.99,,,-99.99,3.480000,,2013-01-12 23:33:00,
2013-01-12 18:43:00,45.0,34.0,-100.00,NW,315,2.0,-999.0,65,-99.99,,,-99.99,3.480000,,2013-01-12 23:43:00,
2013-01-12 18:53:00,45.0,34.0,-100.00,NW,315,2.0,-999.0,65,-99.99,,,-99.99,3.480000,,2013-01-12 23:53:00,
2013-01-12 21:00:00,41.0,33.0,-100.00,NNW,337,1.0,-999.0,74,-99.99,,,-99.99,0.000000,,2013-01-13 02:00:00,
2013-01-12 21:43:00,41.0,33.0,-100.00,NNW,337,1.0,-999.0,74,-99.99,,,-99.99,0.000000,,2013-01-13 02:43:00,
2013-01-12 21:53:00,41.0,33.0,-100.00,NNW,337,1.0,-999.0,74,-99.99,,,-99.99,0.000000,,2013-01-13 02:53:00,